#timestamp,LO_Frequency,Hit,StdDev 
1584762355.0,286047001.3,P
1584762355.9,286047001.3,N
1584762375.8,286047002.5,P
1584762395.6,286047002.3,Y
1584762415.4,286046998.1,P
1584762435.3,286046998.3,N
1584762455.1,286046998.8,N
1584762475.9,286047001.2,N
1584762495.7,286047001.1,N
1584762515.5,286047000.7,N
1584762535.4,286047000.6,N
1584762555.2,286047001.2,N
1584762575.0,286046998.1,N
1584762575.9,286046998.1,N
1584762595.8,286046998.6,N
1584762615.6,286047001.1,N
1584762635.4,286047001.0,N
1584762655.3,286047000.5,N
1584762675.1,286047001.0,N
1584762695.9,286047000.9,N
1584762715.7,286047000.1,N
1584762735.5,286047000.1,N
1584762755.4,286047000.4,N
1584762775.2,286047000.1,N
1584762795.0,286046999.9,N
1584762796.0,286046999.9,N
1584762815.8,286047002.1,N
1584762835.6,286047003.6,Y
1584762855.5,286047007.5,P
1584762875.3,286047008.9,N
1584762895.1,286047007.5,N
1584762915.9,286047003.3,N
1584762935.7,286047001.6,N
1584762955.6,286047002.3,N
1584762975.4,286047000.2,N
1584762995.2,286047000.6,N
1584763015.1,286046998.5,N
1584763016.0,286046998.5,N
1584763035.8,286046998.3,N
1584763055.6,286047000.7,N
1584763075.5,286046998.6,N
1584763095.3,286046998.5,N
1584763115.2,286046999.9,N
1584763135.9,286047000.5,N
1584763155.7,286047000.4,N
1584763175.6,286047000.8,N
1584763195.4,286046998.7,N
